Kalamazoo, MI

10:16 AM EST on January 17, 2018 (GMT -0500)
Kalamazoo-Battle Creek International

Weather History for KAZO - February, 2012

Change the Weather History Date:

Thursday, February 16, 2012

  Actual Average Record
Temperature  
Mean Temperature 37 °F 27 °F  
Max Temperature 43 °F 34 °F 63 °F (1954)
Min Temperature 30 °F 20 °F -5 °F (1958)
Degree Days  
Heating Degree Days 28 38  
Month to date heating degree days 629  
Since 1 July heating degree days 4337  
Cooling Degree Days 0 0  
Month to date cooling degree days 0  
Year to date cooling degree days 0  
Moisture  
Dew Point 35 °F    
Average Humidity 90    
Maximum Humidity 100    
Minimum Humidity 67    
Precipitation  
Precipitation 0.11 in 0.06 in 0.79 in (1954)
Month to date precipitation 0.35 0.76  
Year to date precipitation 2.55  
Sea Level Pressure  
Sea Level Pressure 30.00 in    
Wind  
Wind Speed 8 mph (WSW)    
Max Wind Speed 18 mph    
Max Gust Speed 25 mph    
Visibility 4 miles    
Events Rain    
T = Trace of Precipitation, MM = Missing Value Source: NWS Daily Summary

Daily Weather History Graph

Daily Weather History Graph

Search for Another Location

Airport or City:

Trip Planner

Search our weather history database for the weather conditions in past years. The results will help you decide how hot, cold, wet, or windy it might be!

Date:

Astronomy

Feb. 16, 2012 Rise Set
Actual Time 7:37 AM EST 6:15 PM EST
Civil Twilight 7:09 AM EST 6:44 PM EST
Nautical Twilight 6:36 AM EST 7:16 PM EST
Astronomical Twilight 6:03 AM EST 7:49 PM EST
Moon 3:36 AM EST (2/16) 1:02 PM EST (2/16)
Length of Visible Light 11h 35m
Length of Day
10h 37m
Waning Crescent, 28% of the Moon is Illuminated
Feb 16
Waning Crescent
Feb 21
New
Feb 29
First Quarter
Mar 8
Full
Mar 14
Last Quarter

Hourly Weather History & Observations

Time (EST) Temp. Windchill Dew Point Humidity Pressure Visibility Wind Dir Wind Speed Gust Speed Precip Events Conditions
12:10 AM 37.4 °F 32.8 °F 37.4 °F 100% 30.00 in 1.5 mi SSE 5.8 mph - 0.01 in Rain Light Rain
12:30 AM 37.4 °F 32.8 °F 37.4 °F 100% 29.99 in 1.8 mi SSE 5.8 mph - 0.03 in Rain Light Rain
12:39 AM 37.4 °F 31.4 °F 37.4 °F 100% 29.99 in 1.8 mi South 8.1 mph - 0.04 in Rain Light Rain
12:49 AM 37.4 °F 30.8 °F 37.4 °F 100% 29.99 in 2.0 mi South 9.2 mph - 0.05 in Rain Light Rain
12:53 AM 37.9 °F 32.1 °F 37.0 °F 97% 30.01 in 2.0 mi South 8.1 mph - 0.06 in Rain Light Rain
1:05 AM 37.4 °F 31.4 °F 37.4 °F 100% 29.99 in 2.0 mi South 8.1 mph - 0.00 in Rain Light Rain
1:35 AM 37.4 °F 30.8 °F 37.4 °F 100% 29.98 in 1.8 mi South 9.2 mph - 0.01 in Rain Light Rain
1:49 AM 37.4 °F 31.4 °F 37.4 °F 100% 29.98 in 2.5 mi South 8.1 mph - 0.01 in Rain Light Rain
1:53 AM 37.9 °F 32.1 °F 37.9 °F 100% 30.00 in 2.5 mi South 8.1 mph - 0.01 in Rain Light Rain
2:53 AM 37.9 °F 33.5 °F 37.9 °F 100% 29.98 in 2.0 mi South 5.8 mph - 0.02 in Rain Light Rain
3:51 AM 39.2 °F 34.2 °F 37.4 °F 93% 29.94 in 1.8 mi SSW 6.9 mph - 0.01 in   Overcast
3:53 AM 39.0 °F 34.0 °F 37.9 °F 96% 29.96 in 1.8 mi South 6.9 mph - 0.01 in   Overcast
4:53 AM 39.0 °F 34.8 °F 39.0 °F 100% 29.96 in 1.5 mi SSW 5.8 mph - 0.01 in   Overcast
5:41 AM 39.2 °F 35.9 °F 39.2 °F 100% 29.93 in 2.0 mi SSW 4.6 mph - 0.00 in   Overcast
5:53 AM 39.0 °F 36.8 °F 39.0 °F 100% 29.96 in 2.0 mi SW 3.5 mph - 0.00 in   Overcast
6:53 AM 39.0 °F 34.8 °F 39.0 °F 100% 29.95 in 1.0 mi West 5.8 mph - N/A   Overcast
7:53 AM 39.0 °F 34.0 °F 37.9 °F 96% 29.96 in 1.8 mi West 6.9 mph - 0.01 in   Overcast
8:24 AM 39.2 °F - 39.2 °F 100% 29.93 in 0.8 mi Calm Calm - N/A   Overcast
8:53 AM 39.0 °F 34.0 °F 37.9 °F 96% 29.96 in 0.8 mi West 6.9 mph - N/A   Overcast
9:53 AM 39.0 °F 34.0 °F 37.9 °F 96% 29.97 in 0.8 mi West 6.9 mph - N/A   Overcast
10:32 AM 39.2 °F 35.0 °F 37.4 °F 93% 29.96 in 2.0 mi West 5.8 mph - N/A   Overcast
10:53 AM 39.0 °F 34.0 °F 37.9 °F 96% 29.99 in 2.5 mi West 6.9 mph - N/A   Overcast
11:53 AM 39.0 °F 32.3 °F 37.9 °F 96% 30.01 in 2.5 mi WNW 10.4 mph - N/A   Overcast
12:09 PM 39.2 °F 31.6 °F 37.4 °F 93% 29.99 in 3.0 mi WNW 12.7 mph - N/A   Overcast
12:53 PM 41.0 °F 33.9 °F 37.9 °F 89% 30.00 in 6.0 mi WNW 12.7 mph 18.4 mph N/A   Overcast
1:53 PM 41.0 °F 34.3 °F 37.0 °F 86% 30.00 in 5.0 mi West 11.5 mph - N/A   Overcast
2:14 PM 42.8 °F 35.8 °F 37.4 °F 81% 29.97 in 5.0 mi West 13.8 mph - N/A   Haze
2:32 PM 41.0 °F 33.1 °F 35.6 °F 81% 29.98 in 4.0 mi West 15.0 mph - N/A   Haze
2:53 PM 41.0 °F 33.1 °F 36.0 °F 82% 30.00 in 4.0 mi WNW 15.0 mph 21.9 mph N/A   Haze
3:38 PM 41.0 °F 32.2 °F 33.8 °F 76% 30.00 in 4.0 mi WNW 18.4 mph 24.2 mph N/A   Haze
3:48 PM 41.0 °F 34.3 °F 33.8 °F 76% 30.00 in 4.0 mi WNW 11.5 mph - N/A   Haze
3:53 PM 42.1 °F 34.5 °F 33.1 °F 70% 30.03 in 4.0 mi West 15.0 mph 21.9 mph N/A   Haze
4:53 PM 39.9 °F 33.4 °F 32.0 °F 73% 30.04 in 6.0 mi WNW 10.4 mph 19.6 mph N/A   Haze
5:53 PM 39.0 °F 30.6 °F 28.9 °F 67% 30.06 in 8.0 mi WNW 15.0 mph - N/A   Clear
6:53 PM 37.0 °F 31.6 °F 28.0 °F 70% 30.09 in 9.0 mi WNW 6.9 mph - N/A   Clear
7:53 PM 35.1 °F 32.2 °F 27.0 °F 72% 30.10 in 10.0 mi WSW 3.5 mph - N/A   Clear
8:53 PM 34.0 °F 31.0 °F 27.0 °F 75% 30.09 in 9.0 mi SW 3.5 mph - N/A   Clear
9:53 PM 30.9 °F 26.2 °F 27.0 °F 85% 30.10 in 9.0 mi SW 4.6 mph - N/A   Clear
10:53 PM 30.9 °F 24.3 °F 27.0 °F 85% 30.10 in 7.0 mi SW 6.9 mph - N/A   Mostly Cloudy
11:53 PM 32.0 °F 25.6 °F 28.0 °F 85% 30.09 in 8.0 mi SW 6.9 mph - N/A   Mostly Cloudy